This is the latest recevied weather packets stored in our database for station/object K4VEB. If no packets are shown the sender has not sent any weather packets the latest 10 day(s).
| Time | Temp. | Humidity | Pressure | Rain* | Wind** | Luminosity | Snow |
|---|---|---|---|---|---|---|---|
| 1777551589 | 22.22° C | 87% | 1012.3 hPa | 0 mm | - | 81 W/m² | - |
| 1777551287 | 22.22° C | 87% | 1012.5 hPa | 0 mm | - | 65 W/m² | - |
| 1777550983 | 22.22° C | 87% | 1012.5 hPa | 0 mm | - | 60 W/m² | - |
| 1777550680 | 22.22° C | 88% | 1012.3 hPa | 0 mm | - | 59 W/m² | - |
| 1777550376 | 22.22° C | 88% | 1012 hPa | 0 mm | - | 61 W/m² | - |
| 1777550072 | 21.67° C | 88% | 1011.9 hPa | 0 mm | - | 59 W/m² | - |
| 1777549769 | 21.67° C | 88% | 1012 hPa | 0 mm | - | 55 W/m² | - |
| 1777549465 | 21.67° C | 88% | 1012.1 hPa | 0 mm | - | 45 W/m² | - |
| 1777549161 | 21.67° C | 88% | 1011.9 hPa | 0 mm | - | 40 W/m² | - |
| 1777548858 | 21.67° C | 89% | 1011.8 hPa | 0 mm | - | 34 W/m² | - |
| 1777548555 | 21.67° C | 89% | 1011.6 hPa | 0 mm | - | 28 W/m² | - |
| 1777548252 | 21.67° C | 89% | 1011.6 hPa | 0 mm | - | 20 W/m² | - |
| 1777547949 | 21.67° C | 89% | 1011.8 hPa | 0 mm | - | 16 W/m² | - |
| 1777547644 | 21.67° C | 89% | 1011.8 hPa | 0 mm | - | 10 W/m² | - |
| 1777547341 | 21.67° C | 89% | 1011.5 hPa | 0 mm | - | 9 W/m² | - |
| 1777547039 | 21.67° C | 89% | 1011.6 hPa | 0 mm | - | 6 W/m² | - |
| 1777546736 | 21.67° C | 89% | 1011.8 hPa | 0 mm | - | 4 W/m² | - |
| 1777546432 | 21.67° C | 89% | 1011.4 hPa | 0 mm | - | 2 W/m² | - |
| 1777546130 | 21.67° C | 89% | 1011.4 hPa | 0 mm | - | 1 W/m² | - |
| 1777545825 | 21.67° C | 89% | 1011.2 hPa | 0 mm | - | 0 W/m² | - |
| 1777545523 | 21.67° C | 88% | 1011.2 hPa | 0 mm | - | 0 W/m² | - |
| 1777545219 | 21.67° C | 88% | 1011.3 hPa | 0 mm | - | 0 W/m² | - |
| 1777544918 | 21.67° C | 88% | 1011.2 hPa | 0 mm | - | 0 W/m² | - |
| 1777544613 | 21.67° C | 88% | 1011.1 hPa | 0 mm | - | 0 W/m² | - |
| 1777544310 | 21.67° C | 88% | 1011.2 hPa | 0 mm | - | 0 W/m² | - |
* Rain latest hour (hover to see other rain measurements)
** Current wind speed in m/s (hover to see current wind gust speed)